默认 日期 大小 文件数 浏览量 最新下载 xml
llama磁力链接相关资源由用户搜索指令自动获取,结果来源于网络,本站不存储任何资料,亦不承担任何责任,请于24小时内删除,搜索到343个磁力,用时0ms。
    {"El enigma se llama juggernaut (1974).HDrip.avi": 1570998272, "El enigma se llama juggernaut (1974).HDrip.srt": 102006}
创建时间: 2020-06-08 10:23:51 大小:1.46 GB 文件数量:2 热度:4 最近下载:2025-08-02 03:22:02
    {"codex.nfo": 5964, "codex-vicious.attack.llama.apocalypse.iso": 1763483648}
创建时间: 2020-06-16 16:29:43 大小:1.64 GB 文件数量:2 热度:3 最近下载:2022-04-16 06:09:38
    {"codex.nfo": 5798, "README.txt": 338, "IGG-GAMES.COM.url": 196, "PCGAMESTORRENTS.COM.url": 202, "codex-tropico.6.the.llama.of.wall.street.iso": 9904291840}
创建时间: 2020-06-25 11:27:32 大小:9.22 GB 文件数量:5 热度:7 最近下载:2025-03-05 17:56:02
    {"cover.jpg": 157595, "metadata.opf": 1153, "Llama Llama Misses Mama - picture book.pdf": 2574132, "Llama Llama Misses Mama - picture book.mobi": 2724697}
创建时间: 2020-07-07 17:34:04 大小:5.2 MB 文件数量:4 热度:2 最近下载:2024-12-02 02:57:02
    {"metadata.opf": 1140, "Llama Llama Mad At Mama - Anna Dewdney.pdf": 2686410, "Llama Llama Mad At Mama - Anna Dewdney.rtf": 44006826, "Llama Llama Mad At Mama - Anna Dewdney.mobi": 2446880}
创建时间: 2020-07-08 18:53:22 大小:46.86 MB 文件数量:4 热度:2 最近下载:2021-06-17 16:25:58
    {"Dios es mujer y se llama Petrunya (2019) BR-RIP RUS - ZeiZ.jpg": 97929, "Dios es mujer y se llama Petrunya (2019) BR-RIP RUS - ZeiZ.mkv": 2347097921}
创建时间: 2020-07-12 00:26:36 大小:2.19 GB 文件数量:2 热度:4 最近下载:2025-08-01 19:09:01
    ... Hammond Jr. - ¿Cómo Te Llama (2008) [WMA Lossless] [Fallen Angel ... Hammond Jr. - ¿Cómo Te Llama (2008) [WMA Lossless] [Fallen Angel ... Hammond Jr. - ¿Cómo Te Llama (2008) [WMA Lossless] [Fallen Angel ...
创建时间: 2020-10-06 17:55:25 大小:306.45 MB 文件数量:18 热度:8 最近下载:2025-08-04 02:04:08
    ... ti.mp3": 8652364, " 04 - La llama se enciende.mp3": 8828051, " 07 ...
创建时间: 2020-11-15 02:07:48 大小:72.27 MB 文件数量:10 热度:10 最近下载:2025-09-15 20:36:05
    {"Call.the.Midwife.1x01.Episodio.1.m720p.AMZN.WEB-DL.DDP2.0.H.264-eth@n.mkv": 1657268237, "Call.the.Midwife.1x02.Episodio.2.m720p.AMZN.WEB-DL.DDP2.0.H.264-eth@n.mkv": 1664381936, "Call.the.Midwife.1x03.Episodio.3.m720p.AMZN.WEB-DL.DDP2.0.H.264-eth@n.mkv": ...
创建时间: 2021-01-26 17:40:45 大小:4.67 GB 文件数量:3 热度:3 最近下载:2025-02-06 22:03:05
    ... , "PERCEPTiON WEBS AFILIADAS.txt": 185, "llama.a.la.comadrona.106.spanish ... .720p-perception.nfo": 851, "llama.a.la.comadrona.106.spanish ... .720p-perception.jpeg": 129890, "Llama.a.La.Comadrona.S01E06.SPANiSH ...
创建时间: 2021-02-09 03:17:30 大小:724.93 MB 文件数量:5 热度:2 最近下载:2025-01-22 08:29:03
    {"Tuerqui_MadeinTorrent.com.url": 155, "¿Quién llama a mi puerta (DVD-Rip) Castellano.avi": 658495944}
创建时间: 2021-02-11 13:07:45 大小:627.99 MB 文件数量:2 热度:7 最近下载:2025-08-03 15:42:02
    {"pics": {"cover.tif": 2227992, "cassette.tif": 2777592}, "Part I.flac": 91988616, "Part II.flac": 458241133, "Part III.flac": 553170784, "Public Tatoos.cue": 445}
创建时间: 2021-03-15 05:04:31 大小:1.03 GB 文件数量:6 热度:6 最近下载:2025-01-02 08:57:01
    ... , "GameOverlayRenderer64.dll": 1394976}, "Vicious.Attack.Llama.Apocalypse.iso": 1754660864}
创建时间: 2021-03-26 14:12:14 大小:1.64 GB 文件数量:12 热度:3 最近下载:2025-02-04 16:27:03
    {"Llama a la Comadrona 2x4.avi": 351455554, "Llama a la Comadrona 2x03.avi": 333190854, "Llama a la Comadrona 2x05.avi": 320668064}
创建时间: 2021-04-02 05:06:23 大小:958.74 MB 文件数量:3 热度:3 最近下载:2025-08-02 11:05:10
    {"LlamaComadrona206.avi": 598795626}
创建时间: 2021-04-02 11:35:48 大小:571.06 MB 文件数量:1 热度:3 最近下载:2025-02-03 18:50:02
    {"Llama a la Comadrona 207.www.lokotorrents.com.avi": 598477196}
创建时间: 2021-04-02 13:43:44 大小:570.75 MB 文件数量:1 热度:1 最近下载:2025-01-09 20:12:06
    {"Llama A La Comadrona - Temporada 1 [HDTV][Cap.103][Español Castellano]": {"LlaALComad103.avi": 598904998}, "Llama A La Comadrona - Temporada 1 [HDTV][Cap.104][Español Castellano]": {"LlaALComad104.avi": 598605614}}
创建时间: 2021-04-03 05:57:47 大小:1.12 GB 文件数量:2 热度:2 最近下载:2025-04-29 13:39:02
    {"Charlie G - Llama L'amor.flac": 123562267, "Charlie G - Llama L'amor 1987.cue": 389, "Charlie G - Love Plays Tricks.flac": 119915440}
创建时间: 2021-04-15 21:58:10 大小:232.2 MB 文件数量:3 热度:3 最近下载:2025-08-01 02:34:08
    ... -rings-twice-el-cartero-siempre-llama-dos-veces-tay-garnett-vose_meta ... Rings Twice - El cartero siempre llama dos veces - Tay Garnett - VOSE ... -rings-twice-el-cartero-siempre-llama-dos-veces-tay-garnett-vose_meta ...
创建时间: 2021-05-01 00:48:27 大小:508.5 MB 文件数量:4 热度:10 最近下载:2025-09-15 13:12:10
    ... .png": 320366, "skinnysingers2009-02-07.llama.flac16_meta.xml": 1637}
创建时间: 2021-05-04 07:53:35 大小:764.34 MB 文件数量:142 热度:3 最近下载:2025-01-25 17:06:05